Regional Weather Roundup
Issued by NWS

Home | Current Version | Previous Version | Graphics & Text | Print | Product List | Glossary On
Versions: 1 2 3 4 5 6 7 8 9 10 11 12 13 14 15 16 17 18 19 20 21 22 23 24 25 26 27 28 29 30 31 32 33 34 35 36 37 38 39 40 41 42 43 44 45 46 47 48 49 50
000
ASUS45 KBOI 111610
RWRID
WEATHER ROUNDUP FOR IDAHO
NATIONAL WEATHER SERVICE BOISE ID
1000 AM MDT FRI JUL 11 2014

NOTE: "FAIR" INDICATES FEW OR NO CLOUDS BELOW 12000 FEET
WITH NO SIGNIFICANT WEATHER AND/OR OBSTRUCTIONS TO VISIBILITY

IDZ012-014-111700-
SOUTHWEST IDAHO


CITY           SKY/WX    TMP DP  RH WIND       PRES   REMARKS
BOISE          SUNNY     78  48  34 W6        29.96R
CALDWELL       SUNNY     79  39  24 NW7       29.96S
MOUNTAIN HOME  SUNNY     81  44  27 E2        29.96R
$$

IDZ016-017-111700-
SOUTHCENTRAL IDAHO


CITY           SKY/WX    TMP DP  RH WIND       PRES   REMARKS
BURLEY         MOSUNNY   79  60  52 W6        30.03R
JEROME         SUNNY     77  50  38 SW6       30.04R
TWIN FALLS     MOSUNNY   85  45  24 SW12      30.03R
$$

IDZ019>023-111700-
SOUTHEAST IDAHO


CITY           SKY/WX    TMP DP  RH WIND       PRES   REMARKS
IDAHO FALLS    MOSUNNY   72  58  61 NW6       30.11S
POCATELLO      SUNNY     80  59  48 N7        30.08R
REXBURG        MOSUNNY   71  55  56 NE6       30.12S
$$

IDZ006-010-011-018-031-032-111700-
CENTRAL IDAHO MOUNTAINS


CITY           SKY/WX    TMP DP  RH WIND       PRES   REMARKS
MCCALL         SUNNY     70  47  43 CALM      30.09S
HAILEY         MOSUNNY   75  45  33 CALM      30.12S
STANLEY          N/A     63  42  46 N3        30.23S
SALMON         SUNNY     72  52  49 CALM      30.05F
CHALLIS        SUNNY     72  42  34 SE5       30.11F
$$

IDZ002-004-006-007-026-111700-
NORTHERN IDAHO


CITY           SKY/WX    TMP DP  RH WIND       PRES   REMARKS
LEWISTON       SUNNY     72  46  39 E5        29.96S
LOWELL           N/A     68  53  58 CALM      29.98F
COEUR D`ALENE  SUNNY     73  54  49 NE12      29.99S
MULLAN PASS    SUNNY     64  43  46 VRB3      30.19S
$$



USA.gov is the U.S. government's official web portal to all federal, state and local government web resources and services.